Lihue, HI

7:20 AM HST on June 27, 2017 (GMT -1000)
Lihue

Weather History for PHLI - July, 2013

Change the Weather History Date:

Tuesday, July 23, 2013

  Actual Average Record
Temperature  
Mean Temperature 78 °F 79 °F  
Max Temperature 83 °F 84 °F 88 °F (1981)
Min Temperature 73 °F 74 °F 65 °F (1955)
Degree Days  
Heating Degree Days 0 0  
Month to date heating degree days 0 0  
Since 1 June heating degree days 0 0  
Since 1 July heating degree days 0 0  
Cooling Degree Days 13 14  
Month to date cooling degree days 269 322  
Year to date cooling degree days 1733 1955  
Since 1 June cooling degree days 651 716  
Growing Degree Days 28 (Base 50)    
Moisture  
Dew Point 73 °F    
Average Humidity 85    
Maximum Humidity 100    
Minimum Humidity 69    
Precipitation  
Precipitation T in 0.07 in 4.68 in (1989)
Month to date precipitation 0.63 1.33  
Year to date precipitation 16.13 18.78  
Snow  
Snow 0.00 in - - ()
Month to date snowfall 0.0  
Since 1 June snowfall 0.0  
Since 1 July snowfall 0.0  
Snow Depth 0.00 in    
Sea Level Pressure  
Sea Level Pressure 30.01 in    
Wind  
Wind Speed 9 mph (NE)    
Max Wind Speed 16 mph    
Max Gust Speed 20 mph    
Visibility 10 miles    
Events Rain    
T = Trace of Precipitation, MM = Missing Value Source: NWS Daily Summary

Daily Weather History Graph

Daily Weather History Graph

Search for Another Location

Airport or City:

Trip Planner

Search our weather history database for the weather conditions in past years. The results will help you decide how hot, cold, wet, or windy it might be!

Date:

Astronomy

Jul. 23, 2013 Rise Set
Actual Time 6:06 AM HST 7:21 PM HST
Civil Twilight 5:42 AM HST 7:45 PM HST
Nautical Twilight 5:13 AM HST 8:14 PM HST
Astronomical Twilight 4:43 AM HST 8:43 PM HST
Moon 8:17 PM HST (7/23) 7:12 AM HST (7/23)
Length of Visible Light 14h 03m
Length of Day
13h 14m
Full, 98% of the Moon is Illuminated
Jul 23
Full
Jul 29
Last Quarter
Aug 6
New
Aug 14
First Quarter
Aug 20
Full

Hourly Weather History & Observations

Time (HST) Temp. Heat Index Dew Point Humidity Pressure Visibility Wind Dir Wind Speed Gust Speed Precip Events Conditions
12:00 AM 73.4 °F - 73.4 °F 100% 30.04 in 10.0 mi NNW 5.8 mph - 0.00 in   Overcast
12:22 AM 73.4 °F - 73.4 °F 100% 30.04 in 10.0 mi NNW 3.5 mph - 0.00 in   Overcast
12:50 AM 73.4 °F - 73.4 °F 100% 30.03 in 10.0 mi NNW 4.6 mph - 0.00 in   Overcast
12:53 AM 73.0 °F - 73.0 °F 100% 30.02 in 10.0 mi NNW 3.5 mph - 0.00 in   Overcast
1:28 AM 73.4 °F - 73.4 °F 100% 30.02 in 10.0 mi NNW 4.6 mph - 0.00 in   Mostly Cloudy
1:53 AM 73.9 °F - 73.0 °F 97% 30.01 in 10.0 mi NW 4.6 mph - 0.00 in   Mostly Cloudy
2:53 AM 73.0 °F - 73.0 °F 100% 29.99 in 10.0 mi NNW 5.8 mph - N/A   Mostly Cloudy
3:53 AM 73.9 °F - 73.0 °F 97% 29.98 in 10.0 mi NNW 4.6 mph - N/A   Mostly Cloudy
4:18 AM 73.4 °F - 73.4 °F 100% 29.98 in 10.0 mi NNW 4.6 mph - N/A   Overcast
4:25 AM 73.4 °F - 73.4 °F 100% 29.98 in 10.0 mi NNW 4.6 mph - N/A   Overcast
4:53 AM 73.9 °F - 73.0 °F 97% 29.98 in 10.0 mi NNW 8.1 mph - N/A   Overcast
5:39 AM 73.4 °F - 73.4 °F 100% 29.98 in 10.0 mi NW 3.5 mph - N/A   Overcast
5:53 AM 73.9 °F - 73.9 °F 100% 29.98 in 10.0 mi North 5.8 mph - N/A   Overcast
6:32 AM 75.2 °F - 73.4 °F 94% 30.00 in 10.0 mi ENE 8.1 mph - N/A   Overcast
6:53 AM 75.9 °F - 73.9 °F 94% 29.99 in 10.0 mi NE 9.2 mph - N/A   Mostly Cloudy
7:01 AM 77.0 °F - 73.4 °F 89% 30.00 in 10.0 mi NE 8.1 mph - N/A   Mostly Cloudy
7:09 AM 77.0 °F - 73.4 °F 89% 30.01 in 10.0 mi NE 8.1 mph - N/A   Mostly Cloudy
7:25 AM 77.0 °F - 73.4 °F 89% 30.01 in 10.0 mi NNE 8.1 mph - N/A   Overcast
7:53 AM 77.0 °F - 73.0 °F 88% 30.00 in 10.0 mi NE 6.9 mph - N/A   Mostly Cloudy
8:04 AM 77.0 °F - 73.4 °F 89% 30.01 in 10.0 mi ENE 4.6 mph - N/A   Scattered Clouds
8:31 AM 77.0 °F - 73.4 °F 89% 30.01 in 10.0 mi East 6.9 mph - N/A   Mostly Cloudy
8:42 AM 77.0 °F - 73.4 °F 89% 30.01 in 10.0 mi East 11.5 mph 18.4 mph 0.00 in Rain Light Rain
8:53 AM 77.0 °F - 75.0 °F 94% 30.01 in 9.0 mi East 11.5 mph - 0.00 in Rain Light Rain
9:22 AM 80.6 °F 86.2 °F 75.2 °F 84% 30.02 in 10.0 mi East 12.7 mph - 0.00 in   Mostly Cloudy
9:53 AM 79.0 °F - 73.9 °F 84% 30.02 in 10.0 mi East 13.8 mph - 0.00 in   Scattered Clouds
10:53 AM 81.0 °F 86.2 °F 73.9 °F 79% 30.02 in 10.0 mi ENE 12.7 mph - N/A   Overcast
11:53 AM 82.0 °F 87.9 °F 73.9 °F 76% 30.02 in 10.0 mi ENE 10.4 mph - N/A   Mostly Cloudy
12:53 PM 81.0 °F 85.8 °F 73.0 °F 77% 30.02 in 10.0 mi ENE 10.4 mph - N/A   Mostly Cloudy
1:02 PM 82.4 °F 88.2 °F 73.4 °F 74% 30.02 in 10.0 mi ENE 12.7 mph - N/A   Overcast
1:32 PM 82.4 °F 88.2 °F 73.4 °F 74% 30.02 in 10.0 mi ENE 10.4 mph - N/A   Mostly Cloudy
1:50 PM 82.4 °F 88.2 °F 73.4 °F 74% 30.02 in 10.0 mi ENE 12.7 mph - N/A   Partly Cloudy
1:53 PM 82.0 °F 87.4 °F 73.0 °F 74% 30.01 in 10.0 mi ENE 12.7 mph - N/A   Scattered Clouds
2:53 PM 82.0 °F 86.7 °F 72.0 °F 71% 30.00 in 10.0 mi ENE 11.5 mph - N/A   Scattered Clouds
3:53 PM 82.9 °F 88.8 °F 73.0 °F 72% 29.99 in 10.0 mi ENE 11.5 mph - N/A   Mostly Cloudy
4:29 PM 82.4 °F 87.2 °F 71.6 °F 70% 30.00 in 10.0 mi NE 11.5 mph - N/A   Scattered Clouds
4:53 PM 81.0 °F 85.2 °F 72.0 °F 74% 29.99 in 10.0 mi ENE 11.5 mph - N/A   Partly Cloudy
5:53 PM 80.1 °F 84.2 °F 73.0 °F 79% 30.00 in 10.0 mi NE 11.5 mph - N/A   Mostly Cloudy
6:17 PM 78.8 °F - 71.6 °F 78% 30.00 in 10.0 mi ENE 12.7 mph - N/A   Mostly Cloudy
6:34 PM 78.8 °F - 71.6 °F 78% 30.01 in 10.0 mi ENE 11.5 mph - N/A   Scattered Clouds
6:53 PM 77.0 °F - 72.0 °F 84% 30.00 in 10.0 mi ENE 10.4 mph - N/A   Scattered Clouds
7:53 PM 77.0 °F - 72.0 °F 84% 30.01 in 10.0 mi NE 10.4 mph - N/A   Partly Cloudy
8:53 PM 75.9 °F - 72.0 °F 87% 30.03 in 10.0 mi NE 9.2 mph - N/A   Scattered Clouds
9:01 PM 75.2 °F - 71.6 °F 89% 30.03 in 10.0 mi NE 9.2 mph - N/A   Mostly Cloudy
9:53 PM 75.9 °F - 72.0 °F 87% 30.04 in 10.0 mi ENE 8.1 mph - N/A   Mostly Cloudy
10:53 PM 75.9 °F - 72.0 °F 87% 30.04 in 10.0 mi NE 8.1 mph - N/A   Overcast
11:53 PM 75.9 °F - 73.0 °F 91% 30.03 in 10.0 mi NE 6.9 mph - N/A   Overcast